DLH400 EDDF-KJFK

Flight info

Callsign DLH400
Flight time N/A
Altitude 38000
Route OBOKA6N/25C OBOKA Z29 TORNU DCT VICOT DCT GALSO Q63 ERING L179 UGBET Q60 OKSAW DCT BIBPE DCT TIGWE DCT FELCA DCT FADZU DCT NICXI DCT OFSOX DCT SLANY DCT DIMUS DCT MALOT/M082F390 DCT 54N020W 54N030W 54N040W 53N050W DCT RIKAL/N0479F400 N572A TOPPS DCT ENE PARCH4
Aircraft A346/H-SDE2E3FGHIJ3J4J5M1P2RWXYZ/LB1D1

Departure

Time 2026-05-03 23:00
Airport Frankfurt Main Airport (EDDF)

Arrival

Time N/A
Airport John F. Kennedy International Airport (KJFK)
Time Latitude Longitude Altitude Speed Heading
2026-05-03 22:32 50.04635 8.55949 367 ft 0 kts 340°
2026-05-03 22:43 50.04620 8.55957 366 ft 4 kts 339°
2026-05-03 22:44 50.04599 8.55969 370 ft 4 kts 337°
2026-05-03 22:44 50.04580 8.55988 367 ft 4 kts 309°
2026-05-03 22:44 50.04572 8.56014 370 ft 4 kts 274°
2026-05-03 22:44 50.04575 8.56052 370 ft 4 kts 253°
2026-05-03 22:45 50.04583 8.56090 369 ft 3 kts 250°
2026-05-03 22:45 50.04584 8.56094 369 ft 0 kts 250°
2026-05-03 22:49 50.04582 8.56084 368 ft 2 kts 250°
2026-05-03 22:50 50.04573 8.56047 368 ft 5 kts 250°
2026-05-03 22:50 50.04556 8.55983 366 ft 7 kts 234°
2026-05-03 22:50 50.04504 8.55947 370 ft 9 kts 198°
2026-05-03 22:50 50.04434 8.55912 371 ft 12 kts 197°
2026-05-03 22:51 50.04351 8.55924 367 ft 8 kts 160°
2026-05-03 22:51 50.04303 8.55952 367 ft 9 kts 159°
2026-05-03 22:51 50.04259 8.56026 367 ft 11 kts 88°
2026-05-03 22:51 50.04290 8.56152 367 ft 13 kts 70°
2026-05-03 22:52 50.04323 8.56291 370 ft 14 kts 69°
2026-05-03 22:52 50.04353 8.56415 366 ft 10 kts 69°
2026-05-03 22:52 50.04381 8.56530 368 ft 12 kts 69°
2026-05-03 22:52 50.04413 8.56665 372 ft 14 kts 70°
2026-05-03 22:53 50.04447 8.56810 370 ft 15 kts 70°
2026-05-03 22:53 50.04485 8.56970 371 ft 17 kts 70°
2026-05-03 22:53 50.04532 8.57164 371 ft 20 kts 69°
2026-05-03 22:53 50.04584 8.57382 371 ft 22 kts 70°
2026-05-03 22:54 50.04640 8.57620 367 ft 23 kts 69°
2026-05-03 22:54 50.04682 8.57794 373 ft 9 kts 69°
2026-05-03 22:54 50.04703 8.57883 367 ft 6 kts 69°
2026-05-03 22:54 50.04705 8.57943 366 ft 6 kts 117°
2026-05-03 22:55 50.04661 8.57984 372 ft 9 kts 156°
2026-05-03 22:55 50.04605 8.58022 371 ft 9 kts 156°
2026-05-03 22:55 50.04565 8.58073 374 ft 6 kts 109°
2026-05-03 22:55 50.04574 8.58146 376 ft 7 kts 71°
2026-05-03 22:56 50.04591 8.58222 375 ft 7 kts 70°
2026-05-03 22:56 50.04609 8.58298 380 ft 8 kts 70°
2026-05-03 22:56 50.04631 8.58391 380 ft 11 kts 70°
2026-05-03 22:56 50.04652 8.58481 380 ft 6 kts 70°
2026-05-03 22:57 50.04647 8.58546 380 ft 7 kts 130°
2026-05-03 22:57 50.04594 8.58588 381 ft 9 kts 159°
2026-05-03 22:57 50.04529 8.58621 382 ft 9 kts 174°
2026-05-03 22:57 50.04490 8.58593 382 ft 7 kts 234°
2026-05-03 22:58 50.04483 8.58568 380 ft 0 kts 249°
2026-05-03 22:59 50.04480 8.58557 382 ft 5 kts 249°
2026-05-03 22:59 50.04408 8.58257 380 ft 61 kts 249°
2026-05-03 22:59 50.04183 8.57319 378 ft 119 kts 249°
2026-05-03 22:59 50.03839 8.55878 359 ft 167 kts 249°
2026-05-03 23:00 50.03386 8.54008 483 ft 196 kts 249°
2026-05-03 23:00 50.02906 8.52027 1131 ft 195 kts 248°
2026-05-03 23:00 50.02174 8.50301 1879 ft 192 kts 217°
2026-05-03 23:00 50.00934 8.49560 2519 ft 198 kts 191°
2026-05-03 23:01 49.99519 8.49489 2962 ft 208 kts 187°
2026-05-03 23:01 49.98044 8.49319 3392 ft 219 kts 189°
2026-05-03 23:01 49.96472 8.49045 3701 ft 237 kts 193°
2026-05-03 23:01 49.94909 8.48108 4014 ft 249 kts 219°
2026-05-03 23:02 49.93627 8.46260 4660 ft 252 kts 226°
2026-05-03 23:02 49.92395 8.44320 5514 ft 252 kts 226°
2026-05-03 23:02 49.91179 8.42372 6403 ft 250 kts 226°
2026-05-03 23:02 49.90022 8.40373 7267 ft 249 kts 236°
2026-05-03 23:03 49.89496 8.37797 8002 ft 260 kts 266°
2026-05-03 23:03 49.89743 8.34985 8829 ft 264 kts 275°
2026-05-03 23:03 49.90027 8.32158 9679 ft 266 kts 273°
2026-05-03 23:03 49.90277 8.29284 10398 ft 272 kts 273°
2026-05-03 23:04 49.90516 8.26288 10849 ft 287 kts 273°
2026-05-03 23:04 49.90982 8.23154 11177 ft 313 kts 290°
2026-05-03 23:04 49.92123 8.20144 11548 ft 334 kts 300°
2026-05-03 23:04 49.93567 8.17174 11899 ft 354 kts 306°
2026-05-03 23:05 49.95298 8.14299 12251 ft 374 kts 313°
2026-05-03 23:05 49.97278 8.11585 12888 ft 383 kts 316°
2026-05-03 23:05 49.99331 8.08904 13653 ft 388 kts 316°
2026-05-03 23:05 50.01415 8.06180 14357 ft 392 kts 316°
2026-05-03 23:06 50.03505 8.03426 15034 ft 396 kts 316°
2026-05-03 23:06 50.05611 8.00628 15726 ft 399 kts 315°
2026-05-03 23:06 50.07724 7.97804 16430 ft 403 kts 315°
2026-05-03 23:06 50.09857 7.94944 17093 ft 407 kts 315°
2026-05-03 23:07 50.12012 7.92046 17770 ft 411 kts 315°
2026-05-03 23:07 50.14183 7.89122 18424 ft 414 kts 315°
2026-05-03 23:07 50.16377 7.86166 19010 ft 418 kts 314°
2026-05-03 23:07 50.18589 7.83180 19587 ft 422 kts 314°
2026-05-03 23:08 50.20816 7.80164 20166 ft 426 kts 314°
2026-05-03 23:08 50.23087 7.77139 20706 ft 432 kts 316°
2026-05-03 23:08 50.25556 7.74376 21232 ft 440 kts 322°
2026-05-03 23:08 50.28241 7.71979 21787 ft 448 kts 328°
2026-05-03 23:09 50.31091 7.69911 22312 ft 455 kts 331°
2026-05-03 23:09 50.34010 7.67932 22856 ft 459 kts 332°
2026-05-03 23:09 50.36919 7.65979 23361 ft 463 kts 332°
2026-05-03 23:09 50.39890 7.63966 23822 ft 467 kts 332°